Regional Weather Roundup
Issued by NWS

Home | Current Version | Previous Version | Graphics & Text | Print | Product List | Glossary On
Versions: 1 2 3 4 5 6 7 8 9 10 11 12 13 14 15 16 17 18 19 20 21 22 23 24 25 26 27 28 29 30 31 32 33 34 35 36 37 38 39 40 41 42 43 44 45 46 47 48 49 50
000
ASUS45 KPSR 300010
RWRAZ

ARIZONA HOURLY REGIONAL WEATHER ROUNDUP
NATIONAL WEATHER SERVICE PHOENIX AZ
500 PM MST MON JUN 29 2015

NOTE: FAIR INDICATES FEW OR NO CLOUDS BELOW 12,000 FEET WITH NO
SIGNIFICANT WEATHER AND/OR OBSTRUCTIONS TO VISIBILITY.

AZZ001>003-036-300100-
NORTHWEST ARIZONA

CITY           SKY/WX    TMP DP  RH WIND       PRES   REMARKS
BULLHEAD CITY  PTSUNNY  111  50  13 SE7       29.71F HX 108
KINGMAN        CLOUDY    94  50  22 N9        29.97F
6HR MIN TEMP:  85; 6HR MAX TEMP: 103; 6HR PCP: TRACE;

$$

AZZ004>008-015-016-018-300100-
NORTH CENTRAL ARIZONA

CITY           SKY/WX    TMP DP  RH WIND       PRES   REMARKS
GRAND CANYON   MOSUNNY   82  53  36 SW7       30.24F
6HR MIN TEMP:  64; 6HR MAX TEMP:  88; 6HR PCP:  0.23;

WILLIAMS       PTSUNNY   79  50  36 CALM      30.31F
PRESCOTT       TSTM      69  63  81 SE46G66   30.18R SQUALL  VSB 1/4
6HR MIN TEMP:  72; 6HR MAX TEMP:  95; 6HR PCP:  0.28;

FLAGSTAFF      PTSUNNY   80  46  30 W5        30.28F
6HR MIN TEMP:  60; 6HR MAX TEMP:  85; 6HR PCP:  0.40;

PAYSON         CLOUDY    79  54  41 CALM      30.16R
PAGE           MOSUNNY  103  34   9 E5        29.97F
6HR MIN TEMP:  92; 6HR MAX TEMP: 104;

$$

AZZ009>014-017-300100-
NORTHEAST ARIZONA

CITY           SKY/WX    TMP DP  RH WIND       PRES   REMARKS
WINSLOW        CLOUDY    96  43  16 NE13      30.06S
6HR MIN TEMP:  90; 6HR MAX TEMP: 100;

SAINT JOHNS    TSTM      71  55  56 SW12G22   30.18F
6HR MIN TEMP:  67; 6HR MAX TEMP:  97; 6HR PCP:  0.36;

WINDOW ROCK    PTSUNNY   89  47  23 N9        30.22F
6HR MIN TEMP:  68; 6HR MAX TEMP:  91; 6HR PCP:  0.14;

SHOW LOW       LGT RAIN  77  45  31 S6        30.25R
$$

AZZ023-300100-
GREATER PHOENIX AREA

CITY           SKY/WX    TMP DP  RH WIND       PRES   REMARKS
PHOENIX        PTSUNNY  108  55  17 W5        29.74F HX 107
6HR MIN TEMP:  99; 6HR MAX TEMP: 110;

BUCKEYE        SUNNY    108  55  18 S7        29.76F HX 106
GLENDALE       PTSUNNY  109  57  18 S12G18    29.77F HX 109
LUKE AFB       SUNNY    108  59  20 S15       29.74F HX 108
DEER VALLEY    MOSUNNY  106  56  19 W8G17     29.77F HX 105
6HR MIN TEMP:  96; 6HR MAX TEMP: 108;

SCOTTSDALE     PTSUNNY  106  54  17 W8        29.80F HX 104
6HR MIN TEMP:  98; 6HR MAX TEMP: 107;

MESA-FALCON    MOSUNNY  106  55  18 W15       29.78F HX 105
MESA-GATEWAY   PTSUNNY  106  57  20 NW9G17    29.80F HX 105
CHANDLER       PTSUNNY  106  57  20 W12G18    29.77F HX 105
$$

AZZ027-028-300100-
SOUTHWEST MARICOPA COUNTY AND PINAL COUNTY

CITY           SKY/WX    TMP DP  RH WIND       PRES   REMARKS
CASA GRANDE    MOSUNNY  104  59  22 W14       29.78F HX 104
6HR MIN TEMP:  95; 6HR MAX TEMP: 106;

GILA BEND      MOSUNNY  108  55  18 W14G20    29.75F HX 106
6HR MIN TEMP:  99; 6HR MAX TEMP: 108;

$$

AZZ503-504-507>509-300100-
SOUTHEAST ARIZONA

CITY           SKY/WX    TMP DP  RH WIND       PRES   REMARKS
TUCSON         CLOUDY    88  58  36 SW14      29.93R
6HR MIN TEMP:  86; 6HR MAX TEMP: 106; 6HR PCP: TRACE;

DAVIS-MONTHAN  CLOUDY    89  59  36 W9        29.91R
6HR MIN TEMP:  89; 6HR MAX TEMP: 102;

NOGALES        CLOUDY    82  60  47 CALM      30.03F
6HR MIN TEMP:  77; 6HR MAX TEMP:  96; 6HR PCP:  0.05;

SIERRA VISTA   TSTM      82  55  39 W20       30.07R
6HR MIN TEMP:  84; 6HR MAX TEMP:  94; 6HR PCP: TRACE;

DOUGLAS        MOSUNNY   97  41  14 E12G17    29.97F
6HR MIN TEMP:  90; 6HR MAX TEMP: 100;

SAFFORD        CLOUDY    97  49  19 NE12      29.90F
6HR MIN TEMP:  92; 6HR MAX TEMP: 102;

$$

AZZ020-021-025-026-031-300100-
SOUTHWEST ARIZONA

CITY           SKY/WX    TMP DP  RH WIND       PRES   REMARKS
YUMA           MOSUNNY  108  60  21 SW8       29.73F HX 109
6HR MIN TEMP:  99; 6HR MAX TEMP: 109;

$$

CAZ031-033-041-043-047-048-061-300100-
SOUTHERN CALIFORNIA

CITY           SKY/WX    TMP DP  RH WIND       PRES   REMARKS
DOWNTOWN L.A.  CLOUDY    77  61  57 VRB3      29.86S
6HR MIN TEMP:  77; 6HR MAX TEMP:  91;

L.A. AIRPORT   CLOUDY    70  61  73 W12       29.87F
6HR MIN TEMP:  70; 6HR MAX TEMP:  78;

SAN DIEGO      CLOUDY    72  62  71 NW5       29.90F
6HR MIN TEMP:  70; 6HR MAX TEMP:  78;

BURBANK        CLOUDY    89  55  31 S10       29.86S
6HR MIN TEMP:  87; 6HR MAX TEMP:  99;

ONTARIO        PTSUNNY   95  58  28 W13       29.85F
6HR MIN TEMP:  85; 6HR MAX TEMP:  97;

RIVERSIDE      PTSUNNY   97  54  23 W9G17     29.84F
6HR MIN TEMP:  85; 6HR MAX TEMP:  99;

PALM SPRINGS   MOSUNNY  106  59  21 VRB3      29.76F HX 106
6HR MIN TEMP: 100; 6HR MAX TEMP: 106;

EL CENTRO NAS  MOSUNNY  107  60  21 VRB7      29.73F HX 108
6HR MIN TEMP: 100; 6HR MAX TEMP: 109;

IMPERIAL       SUNNY    107  65  25 W6        29.70F HX 111
6HR MIN TEMP:  98; 6HR MAX TEMP: 108;

BLYTHE         MOSUNNY  110  59  19 S17       29.71F HX 111
6HR MIN TEMP: 102; 6HR MAX TEMP: 111;

NEEDLES        MOSUNNY  114  49  11 VRB3      29.72F HX 110
6HR MIN TEMP: 106; 6HR MAX TEMP: 115;

$$

NVZ020-UTZ003-300100-
SOUTHERN NEVADA-UTAH

CITY           SKY/WX    TMP DP  RH WIND       PRES   REMARKS
LAS VEGAS      MOSUNNY  108  44  11 VRB3      29.77F HX 103
6HR MIN TEMP: 102; 6HR MAX TEMP: 110;

SALT LAKE CITY MOSUNNY  103  46  14 N8        29.97
6HR MIN TEMP:  94; 6HR MAX TEMP: 104;

$$

NMZ009-TXZ055-300100-
NEW MEXICO-WEST TEXAS

CITY           SKY/WX    TMP DP  RH WIND       PRES   REMARKS
ALBUQUERQUE    CLOUDY    89  43  20 SE10      30.10F
6HR MIN TEMP:  86; 6HR MAX TEMP:  95;

EL PASO        CLOUDY    94  47  20 E6        29.99F
6HR MIN TEMP:  89; 6HR MAX TEMP:  99; 6HR PCP: TRACE;

$$


........................KEY........................
SKY/WX - SKY CONDITION/WEATHER
TMP    - TEMPERATURE IN FAHRENHEIT
DP     - DEW POINT IN FAHRENHEIT
RH     - RELATIVE HUMIDITY IN PERCENT
WIND   - DIRECTION AND SPEED IN MILES PER HOUR (MPH)
VRB    - VARIABLE WIND DIRECTION
PRES   - MEAN SEA LEVEL PRESSURE IN INCHES OF MERCURY
         F - FALLING PRESSURE   R - RISING PRESSURE
         S - STEADY PRESSURE
VSB    - VISIBILITY IN MILES
HX     - HEAT INDEX IN FAHRENHEIT
WCI    - WIND CHILL INDEX IN FAHRENHEIT
TC     - TEMPERATURE IN CELSIUS WHICH IS ALSO KNOWN AS
         TEMPERATURE IN CENTIGRADE
AFB    - AIR FORCE BASE
         LUKE AFB IS LUKE AIR FORCE BASE
         DAVIS-MONTHAN IS DAVIS-MONTHAN AIR FORCE BASE
NAS    - NAVAL AIR STATION
         EL CENTRO NAS IS EL CENTRO NAVAL AIR STATION
N/A    - NOT AVAILABLE




USA.gov is the U.S. government's official web portal to all federal, state and local government web resources and services.